NOAA 16 DEB, 41045

Orbit data source: Space-Track

NOAA 16 DEB, 41045 is space debris in SSO originally from a launch on Thu, 21 Sep 2000 UTC launched from the Air Force Western Test Range (AFWTR). Debris objects in space refer to the collection of defunct objects orbiting the Earth. Examples of debris include non-operational satellites, rocket bodies, and fragments generated from explosions, collisions, or faulty payload assembly.

Loading next visibility...
Identifier
41045, 2000-055C
Orbit
SSO
Country
Flag of USUS
Related business
Manufacturer
Unknown
Mission
Spacecraft
Bus & Motor
Unknown
Mass
Unknown
Launch date (UTC)
2000-09-21 (25 years ago)
Launch vehicle
Unknown
Launch site
Air Force Western Test Range (AFWTR)
Object type
Payload
Rocket body
Debris
Shape & HBR
Unknown shape, 0.1 m
Radar Cross Section
Small (<0.1 m²)

Expand to show TLE details & history
Last TLE update: 1 day ago

TLE from 1 day ago
0 NOAA 16 DEB
1 41045U 00055C   25293.29774142  .00000222  00000-0  13671-3 0  9998
2 41045  98.4587 307.2183 0012312 249.2068 110.7788 14.14735079511236
Epoch: 2025-10-20T07:08Z
TLE epoch observation values (Epoch: 2025-10-20T07:08:44.858Z)
Latitude
-0°
Longitude
171.02932°
Altitude
849.293 km
Speed
7.426 km/s
True Right ascension
20h 28m 52s
True Declination
0° 00' 00"
Sunlit
Object was in daylight at epoch
Visualization orbit readout
Latitude
Unknown
Longitude
Unknown
Altitude
Unknown
Speed
Unknown
Apparent Right ascension
Unknown
Apparent Declination
Unknown
Sunlit
N/A
Visualization observer readout
Local Sidereal Time
03:36:53
Azimuth
Unknown
Elevation
Unknown
Doppler factor
Unknown
Orbital elements
Apogee altitude
849.255 km
Perigee altitude
831.48 km
Semi-major axis
7,218.504 km
Eccentricity
0.00123
Inclination
98.4587°
RAAN
307.2183°
Arg. of periapsis
249.2068°
True anomaly
110.91064°
Mean anomaly
110.7788°
Eccentric anomaly
110.84473°
Mean motion
3.53893 °/min
Orbital period
101.73 mins
BSTAR
0.00013671
Loading maneuver chart data...
Computing Atmospheric mass density...
Loading historical data...
Loading historical data...
Loading historical data...
Loading historical data...
Loading historical data...
Loading historical data...
Loading historical data...

Documentation

Showing up to 5 results
|